Location: Chandrammap?lem
(16.9200°N, 81.0051°E)
Time: 19:33:12
(UTC+00:00)

ARIANE DEB (SYLDA) - Pass Details

Date: 29 May 2024
Orbit: 630 x 35626 km, 7.1° (Epoch: 14 June)

Event Time Altitude Azimuth Distance (km) Brightness Sun altitude
Rises 14:40:10 0° 246° (WSW) 3,005 6.1 -21.0°
Reaches altitude 10° 14:42:02 10° 232° (SW) 2,343 5.2 -21.4°
Maximum altitude 14:46:21 29° 168° (SSE) 2,173 4.4 -22.3°
Enters shadow 14:47:19 28° 156° (SSE) 2,425 4.6 -22.5°
